Date String (YYYY-MM-DD hh:mm:ss) UTC,Instrument flags,Ambient pressure (hPa),Sample flow (lpm),Bypass flow (lpm),Sample temperature (°C),Ambient temperature (°C),ASC tube jacket temperature (°C),LED temperature (°C),Box temperature (°C),Sample RH (%),Span deviation,Mass concentration (μg/m³),Mass concentration (μg/m³),Mass concentration (μg/m³)
DateTimeUTC,F1_M11,P_M11,Q1_M11,Q2_M11,T1_M11,T2_M11,T3_M11,T4_M11,T5_M11,U1_M11,ZSPAN_M11,X2_M11,X0_M11,X1_M11
2022-12-13 12:00:00,,0809.3,5.00,0.00,20.8,18.9,00.0,29.8,22.3,10.9,0000.0,0004.28,0005.82,0004.14
2022-12-13 12:01:00,,0809.3,5.02,0.00,20.9,20.3,00.0,29.8,22.6,10.9,0000.0,0004.30,0005.88,0004.17
2022-12-13 12:02:00,,0809.3,5.01,0.00,21.0,21.4,00.0,29.8,22.9,10.8,0000.0,0004.31,0005.87,0004.18
2022-12-13 12:03:00,,0809.2,4.97,0.00,21.1,21.1,00.0,29.9,22.9,10.8,0000.0,0004.34,0006.03,0004.20
2022-12-13 12:04:00,,0809.2,5.02,0.00,21.1,20.3,00.0,29.9,22.7,10.8,0000.0,0004.39,0006.18,0004.23
2022-12-13 12:05:00,,0809.2,5.00,0.00,21.0,19.6,00.0,29.9,22.5,10.8,0000.0,0004.40,0006.12,0004.24
2022-12-13 12:06:00,,0809.1,5.00,0.00,20.9,19.1,00.0,29.9,22.4,10.9,0000.0,0004.40,0006.85,0004.25
2022-12-13 12:07:00,,0809.1,5.00,0.00,20.9,18.8,00.0,29.9,22.3,10.9,0000.0,0004.39,0006.94,0004.24
2022-12-13 12:08:00,,0809.1,4.99,0.00,20.8,18.6,00.0,29.8,22.2,10.9,0000.0,0004.40,0006.98,0004.24
2022-12-13 12:09:00,,0809.0,4.99,0.00,20.7,18.4,00.0,29.8,22.2,10.9,0000.0,0004.41,0007.06,0004.24
2022-12-13 12:10:00,,0809.0,5.05,0.00,20.8,19.6,00.0,29.7,22.4,10.9,0000.0,0004.42,0007.28,0004.24
2022-12-13 12:11:00,,0809.1,4.97,0.00,20.9,21.0,00.0,29.8,22.7,10.9,0000.0,0004.41,0007.33,0004.24
2022-12-13 12:12:00,,0809.1,4.98,0.00,21.0,21.7,00.0,29.8,22.9,10.8,0000.0,0004.41,0007.36,0004.25
2022-12-13 12:13:00,,0809.0,5.03,0.00,21.1,21.1,00.0,29.8,22.9,10.8,0000.0,0004.41,0007.37,0004.25
2022-12-13 12:14:00,,0809.1,4.97,0.00,21.1,20.3,00.0,29.9,22.7,10.8,0000.0,0004.41,0007.29,0004.25
2022-12-13 12:15:00,,0809.1,5.01,0.00,21.0,19.7,00.0,29.9,22.5,10.8,0000.0,0004.39,0007.38,0004.25
2022-12-13 12:16:00,,0809.0,5.01,0.00,20.9,19.3,00.0,29.8,22.5,10.9,0000.0,0004.39,0007.35,0004.24
2022-12-13 12:17:00,,0809.1,5.00,0.00,20.9,19.1,00.0,29.8,22.4,10.9,0000.0,0004.40,0006.69,0004.24
2022-12-13 12:18:00,,0809.0,4.99,0.00,20.9,18.8,00.0,29.8,22.3,11.0,0000.0,0004.41,0006.58,0004.25
2022-12-13 12:19:00,,0809.0,4.99,0.00,20.8,18.6,00.0,29.8,22.2,11.0,0000.0,0004.41,0006.58,0004.26
2022-12-13 12:20:00,,0809.0,5.03,0.00,20.7,18.5,00.0,29.8,22.2,11.0,0000.0,0004.39,0006.49,0004.25
2022-12-13 12:21:00,,0809.1,4.96,0.00,20.7,19.4,00.0,29.7,22.3,11.0,0000.0,0004.40,0006.31,0004.26
2022-12-13 12:22:00,,0809.1,5.03,0.00,20.9,20.8,00.0,29.7,22.6,11.0,0000.0,0004.41,0006.33,0004.26
2022-12-13 12:23:00,,0809.1,4.98,0.00,21.0,21.2,00.0,29.8,22.8,10.9,0000.0,0004.41,0006.23,0004.26
2022-12-13 12:24:00,,0809.1,4.98,0.00,21.0,20.6,00.0,29.8,22.7,10.9,0000.0,0004.41,0006.24,0004.25
2022-12-13 12:25:00,,0809.1,5.01,0.00,21.0,20.0,00.0,29.8,22.6,10.9,0000.0,0004.40,0006.18,0004.25
2022-12-13 12:26:00,,0809.0,5.00,0.00,20.9,19.4,00.0,29.8,22.4,11.0,0000.0,0004.38,0005.90,0004.25
2022-12-13 12:27:00,,0809.1,5.00,0.00,20.9,19.0,00.0,29.8,22.3,11.0,0000.0,0004.39,0005.95,0004.26
2022-12-13 12:28:00,,0809.1,4.99,0.00,20.8,18.8,00.0,29.8,22.3,11.1,0000.0,0004.37,0005.93,0004.24
2022-12-13 12:29:00,,0809.1,5.00,0.00,20.8,18.6,00.0,29.7,22.2,11.1,0000.0,0004.35,0005.92,0004.22
2022-12-13 12:30:00,,0809.1,5.04,0.00,20.7,18.6,00.0,29.7,22.2,11.2,0000.0,0004.33,0005.86,0004.21
2022-12-13 12:31:00,,0809.1,4.98,0.00,20.8,20.1,00.0,29.7,22.5,11.1,0000.0,0004.33,0005.86,0004.20
2022-12-13 12:32:00,,0809.1,4.99,0.00,20.9,21.3,00.0,29.7,22.7,11.1,0000.0,0004.32,0005.91,0004.18
2022-12-13 12:33:00,,0809.1,5.02,0.00,21.0,21.0,00.0,29.7,22.8,11.0,0000.0,0004.31,0006.36,0004.17
2022-12-13 12:34:00,,0809.1,4.98,0.00,21.0,20.3,00.0,29.8,22.7,11.0,0000.0,0004.29,0006.65,0004.15
2022-12-13 12:35:00,,0809.1,5.01,0.00,20.9,19.8,00.0,29.8,22.6,11.0,0000.0,0004.29,0007.36,0004.15
2022-12-13 12:36:00,,0809.1,5.01,0.00,20.9,19.3,00.0,29.7,22.5,11.0,0000.0,0004.29,0007.40,0004.15
2022-12-13 12:37:00,,0809.1,4.99,0.00,20.8,19.0,00.0,29.7,22.3,11.0,0000.0,0004.29,0007.42,0004.14
2022-12-13 12:38:00,,0809.0,4.99,0.00,20.8,18.6,00.0,29.7,22.2,11.1,0000.0,0004.28,0007.37,0004.13
2022-12-13 12:39:00,,0809.1,5.02,0.00,20.7,18.6,00.0,29.7,22.1,11.1,0000.0,0004.28,0007.36,0004.13
2022-12-13 12:40:00,,0809.0,4.98,0.00,20.7,19.8,00.0,29.7,22.4,11.1,0000.0,0004.28,0007.37,0004.13
2022-12-13 12:41:00,,0809.1,5.02,0.00,20.9,21.0,00.0,29.7,22.7,11.0,0000.0,0004.29,0007.41,0004.14
2022-12-13 12:42:00,,0809.1,4.97,0.00,21.0,20.9,00.0,29.7,22.8,11.0,0000.0,0004.30,0007.45,0004.14
2022-12-13 12:43:00,,0809.0,5.01,0.00,20.9,20.3,00.0,29.7,22.7,10.9,0000.0,0004.32,0007.44,0004.15
2022-12-13 12:44:00,,0809.0,4.98,0.00,20.9,19.7,00.0,29.7,22.5,11.0,0000.0,0004.32,0007.10,0004.16
2022-12-13 12:45:00,,0809.0,4.99,0.00,20.9,19.4,00.0,29.7,22.5,11.0,0000.0,0004.34,0007.45,0004.17
2022-12-13 12:46:00,,0809.1,5.04,0.00,20.8,19.2,00.0,29.7,22.4,11.0,0000.0,0004.35,0006.95,0004.18
2022-12-13 12:47:00,,0809.1,4.96,0.00,20.8,18.9,00.0,29.7,22.4,11.1,0000.0,0004.34,0006.87,0004.19
2022-12-13 12:48:00,,0809.0,5.05,0.00,20.8,18.9,00.0,29.7,22.3,11.1,0000.0,0004.37,0006.98,0004.20
2022-12-13 12:49:00,,0809.1,4.95,0.00,20.8,20.0,00.0,29.7,22.5,11.1,0000.0,0004.40,0007.18,0004.22
2022-12-13 12:50:00,,0809.1,5.04,0.00,20.9,21.2,00.0,29.7,22.8,11.1,0000.0,0004.43,0007.33,0004.24
2022-12-13 12:51:00,,0809.0,4.97,0.00,21.0,21.1,00.0,29.7,22.8,11.1,0000.0,0004.47,0007.43,0004.27
2022-12-13 12:52:00,,0809.0,5.02,0.00,21.0,20.5,00.0,29.8,22.7,11.1,0000.0,0004.48,0007.46,0004.27
2022-12-13 12:53:00,,0809.0,4.97,0.00,21.0,19.9,00.0,29.8,22.6,11.1,0000.0,0004.52,0007.52,0004.28
2022-12-13 12:54:00,,0809.0,5.01,0.00,20.9,19.5,00.0,29.8,22.5,11.1,0000.0,0004.55,0007.62,0004.29
2022-12-13 12:55:00,,0809.0,5.00,0.00,20.9,19.2,00.0,29.8,22.5,11.2,0000.0,0004.59,0007.58,0004.31
2022-12-13 12:56:00,,0809.1,4.99,0.00,20.8,18.9,00.0,29.7,22.4,11.2,0000.0,0004.60,0007.10,0004.32
2022-12-13 12:57:00,,0809.0,5.04,0.00,20.8,18.7,00.0,29.7,22.3,11.3,0000.0,0004.61,0007.10,0004.32
2022-12-13 12:58:00,,0809.0,4.96,0.00,20.7,18.9,00.0,29.7,22.3,11.3,0000.0,0004.64,0007.78,0004.34
2022-12-13 12:59:00,,0809.2,5.02,0.00,20.8,20.4,00.0,29.7,22.6,11.3,0000.0,0004.65,0007.93,0004.36
